Location: Unspecified
(0.0000°N, 0.0000°E)
Time: 13:03:20
(UTC+00:00)

S-56A Canister/Altair - Pass Details

Date: 27 May 2024
Orbit: 637 x 2489 km, 38.9° (Epoch: 17 June)

Event Time Altitude Azimuth Distance (km) Brightness Sun altitude
Rises 14:57:09 0° 272° (W) 2,987 11.3 41.2°
Reaches altitude 10° 15:01:14 10° 235° (SW) 2,014 10.1 40.3°
Maximum altitude 15:02:36 11° 217° (SW) 1,943 9.8 40.0°
Drops below altitude 10° 15:03:58 10° 199° (SSW) 2,043 9.7 39.7°
Sets 15:08:15 0° 163° (SSE) 3,116 10.3 38.7°
